Stations météo

réclame
Mon MeteoGroup
San Sebastian/Fuenterrabia, Espagne (8029): Température de l'air & dewpoint: 13.06.2018 20:00:00 - 19.06.2018 20:00:00 (CEST)San Sebastian/Fuenterrabia, Espagne (8029): Vitesse du vent: 13.06.2018 20:00:00 - 19.06.2018 20:00:00 (CEST)San Sebastian/Fuenterrabia, Espagne (8029): Direction du vent: 13.06.2018 20:00:00 - 19.06.2018 20:00:00 (CEST)San Sebastian/Fuenterrabia, Espagne (8029): reduced air pressure: 13.06.2018 20:00:00 - 19.06.2018 20:00:00 (CEST)San Sebastian/Fuenterrabia, Espagne (8029): visibility: 13.06.2018 20:00:00 - 19.06.2018 20:00:00 (CEST)
Date & Time tt [°C] td [°C] ff [km/h] ff [knt] dd ppp [hPa] vv [km]
19.06.2018 20:00:00 21,6 17,0 9 5 NE 1021,1 18
19.06.2018 19:00:00 22,0 17,0 8 4 NNE - 10
19.06.2018 18:00:00 22,0 17,0 9 5 N - 10
19.06.2018 17:00:00 22,2 16,9 11 6 NNE 1022,7 10
19.06.2018 16:00:00 22,0 17,0 9 5 NNE - 10
19.06.2018 15:00:00 21,0 17,0 8 4 N - 10
19.06.2018 14:00:00 21,0 16,4 8 4 N 1023,9 10
19.06.2018 13:00:00 20,0 16,0 9 5 N - 10
19.06.2018 12:00:00 19,0 16,0 8 4 N - 10
19.06.2018 11:00:00 19,0 15,7 8 4 NNE 1024,8 10
19.06.2018 10:00:00 18,0 16,0 0 0 N - 10
19.06.2018 09:00:00 17,0 16,0 4 2 - - 10
19.06.2018 08:00:00 16,8 15,8 4 2 SSW 1025,7 10
19.06.2018 07:00:00 17,0 16,0 4 2 - - 10
19.06.2018 06:00:00 17,0 15,0 4 2 - - 10
19.06.2018 05:00:00 17,0 16,0 5 3 S - 10
19.06.2018 04:00:00 17,0 15,0 8 4 S - 10
19.06.2018 03:00:00 17,0 16,0 4 2 - - 10
19.06.2018 02:00:00 18,0 15,0 4 2 SW - 10
19.06.2018 01:00:00 18,0 14,0 5 3 NNW - 10
19.06.2018 00:00:00 18,0 16,0 5 3 NW - 10
18.06.2018 23:00:00 18,0 16,0 4 2 - - 10
18.06.2018 22:00:00 18,0 17,0 4 2 - - 10
18.06.2018 21:00:00 19,0 17,0 4 2 - - 10
18.06.2018 20:00:00 18,7 17,2 5 3 N 1026,8 10
18.06.2018 19:00:00 19,0 17,0 9 5 NNW - 10
18.06.2018 18:00:00 19,0 17,0 9 5 NNW - 10
18.06.2018 17:00:00 20,1 16,9 8 4 NW 1027,0 10
18.06.2018 16:00:00 19,0 17,0 8 4 WNW - 10
18.06.2018 15:00:00 19,0 16,0 11 6 W - 10
18.06.2018 14:00:00 19,5 16,3 5 3 - 1027,3 10
18.06.2018 13:00:00 18,0 16,0 5 3 WSW - 10
18.06.2018 12:00:00 18,0 16,0 8 4 WSW - 7
18.06.2018 11:00:00 17,1 14,9 11 6 SW 1027,7 10
18.06.2018 10:00:00 17,0 14,0 11 6 SW - 9
18.06.2018 09:00:00 17,0 14,0 5 3 S - 10
18.06.2018 08:00:00 16,2 12,6 4 2 - 1027,2 10
18.06.2018 07:00:00 15,0 13,0 8 4 S - 10
18.06.2018 06:00:00 16,0 13,0 8 4 S - 10
18.06.2018 05:00:00 15,0 13,0 8 4 S - 10
18.06.2018 04:00:00 15,0 13,0 8 4 S - 10
18.06.2018 03:00:00 14,0 13,0 8 4 S - 10
18.06.2018 02:00:00 15,0 13,0 5 3 S - 10
18.06.2018 01:00:00 15,0 14,0 4 2 - - 10
18.06.2018 00:00:00 16,0 14,0 5 3 S - 10
17.06.2018 23:00:00 16,0 14,0 8 4 S - 10
17.06.2018 22:00:00 17,0 14,0 5 3 WNW - 10
17.06.2018 21:00:00 19,0 14,0 5 3 NW - 10
17.06.2018 20:00:00 20,6 12,8 8 4 WNW 1026,3 10
17.06.2018 19:00:00 20,0 14,0 11 6 NNW - 10
17.06.2018 18:00:00 20,0 13,0 15 8 WNW - 10
17.06.2018 17:00:00 21,9 13,3 13 7 NW 1025,7 10
17.06.2018 16:00:00 21,0 13,0 9 5 NW - 10
17.06.2018 15:00:00 21,0 15,0 11 6 NNW - 10
17.06.2018 14:00:00 21,6 14,0 15 8 WNW 1025,6 10
17.06.2018 13:00:00 20,0 13,0 11 6 WNW - 10
17.06.2018 12:00:00 19,0 14,0 5 3 WNW - 10
17.06.2018 11:00:00 18,6 15,5 8 4 S 1025,3 10
17.06.2018 10:00:00 17,0 16,0 8 4 S - 9
17.06.2018 09:00:00 15,0 15,0 4 2 S - 2,5
17.06.2018 08:00:00 15,2 14,7 5 3 S 1024,6 4,5
17.06.2018 07:00:00 15,0 15,0 8 4 SW - 6
17.06.2018 06:00:00 16,0 14,0 13 7 SW - 10
17.06.2018 05:00:00 16,0 14,0 5 3 SSE - 10
17.06.2018 04:00:00 15,0 13,0 4 2 S - 10
17.06.2018 03:00:00 15,0 13,0 8 4 SSE - 10
17.06.2018 02:00:00 15,0 13,0 5 3 S - 10
17.06.2018 01:00:00 16,0 13,0 5 3 S - 10
17.06.2018 00:00:00 17,0 14,0 5 3 S - 10
16.06.2018 23:00:00 18,0 13,0 2 1 - - 10
16.06.2018 22:00:00 18,0 13,0 4 2 - - 10
16.06.2018 21:00:00 19,0 13,0 4 2 - - 10
16.06.2018 20:00:00 20,0 12,0 8 4 N 1022,2 10
16.06.2018 19:00:00 20,0 11,0 8 4 N - 10
16.06.2018 18:00:00 20,0 12,0 9 5 NE - 10
16.06.2018 17:00:00 19,9 11,9 9 5 NE 1021,2 10
16.06.2018 16:00:00 20,0 13,0 9 5 NNE - 10
16.06.2018 15:00:00 20,0 14,0 5 3 NE - 10
16.06.2018 14:00:00 19,6 12,1 9 5 NE 1021,6 10
16.06.2018 13:00:00 20,0 14,0 4 2 - - 10
16.06.2018 12:00:00 18,0 14,0 4 2 - - 10
16.06.2018 11:00:00 17,7 13,0 9 5 N 1021,1 10
16.06.2018 10:00:00 17,0 13,0 8 4 N - 10
16.06.2018 09:00:00 17,0 14,0 11 6 N - 9
16.06.2018 08:00:00 16,6 16,0 5 3 S 1019,5 7
16.06.2018 07:00:00 16,0 16,0 2 1 - - 8
16.06.2018 06:00:00 16,0 16,0 4 2 - - 8
16.06.2018 05:00:00 17,0 16,0 4 2 - - 10
16.06.2018 04:00:00 17,0 16,0 4 2 - - 9
16.06.2018 03:00:00 17,0 16,0 4 2 - - 10
16.06.2018 02:00:00 17,0 16,0 2 1 - - 10
16.06.2018 01:00:00 17,0 17,0 4 2 SSW - 10
16.06.2018 00:00:00 17,0 16,0 0 0 N - 10
15.06.2018 23:00:00 18,0 17,0 4 2 - - 3,9
15.06.2018 22:00:00 18,0 17,0 0 0 N - 5
15.06.2018 21:00:00 18,0 17,0 4 2 SSE - 4,5
15.06.2018 20:00:00 17,2 16,9 4 2 - 1020,0 2,9
15.06.2018 19:00:00 17,0 17,0 4 2 WNW - 1,8
15.06.2018 18:00:00 17,0 17,0 4 2 - - 1,9
15.06.2018 17:00:00 17,4 16,1 4 2 SSE 1020,4 2,5
15.06.2018 16:00:00 18,0 15,0 8 4 WNW - 9
15.06.2018 15:00:00 19,0 15,0 8 4 WSW - 10
15.06.2018 14:00:00 19,4 13,8 5 3 WNW 1019,9 10
15.06.2018 13:00:00 18,0 14,0 9 5 W - 10
15.06.2018 12:00:00 18,0 14,0 9 5 WNW - 10
15.06.2018 11:00:00 17,0 13,9 5 3 SSW 1019,9 10
15.06.2018 10:00:00 16,0 14,0 8 4 S - 10
15.06.2018 09:00:00 15,0 13,0 5 3 S - 10
15.06.2018 08:00:00 13,6 11,7 8 4 S 1019,9 25
15.06.2018 07:00:00 13,0 12,0 8 4 S - 10
15.06.2018 06:00:00 13,0 12,0 8 4 S - 10
15.06.2018 05:00:00 13,0 12,0 5 3 SSW - 10
15.06.2018 04:00:00 13,0 12,0 5 3 S - 10
15.06.2018 03:00:00 13,0 12,0 8 4 S - 10
15.06.2018 02:00:00 13,0 12,0 5 3 SSW - 10
15.06.2018 01:00:00 14,0 13,0 5 3 S - 10
15.06.2018 00:00:00 14,0 13,0 8 4 S - 10
14.06.2018 23:00:00 15,0 14,0 4 2 SSW - 10
14.06.2018 22:00:00 17,0 14,0 2 1 - - 10
14.06.2018 21:00:00 18,0 14,0 5 3 NE - 10
14.06.2018 20:00:00 20,4 13,4 8 4 N 1020,6 10
14.06.2018 19:00:00 20,0 12,0 8 4 WNW - 10
14.06.2018 18:00:00 19,0 13,0 13 7 WNW - 10
14.06.2018 17:00:00 20,6 13,6 13 7 NW 1020,9 10
14.06.2018 16:00:00 20,0 13,0 13 7 NNW - 10
14.06.2018 15:00:00 20,0 14,0 11 6 WNW - 10
14.06.2018 14:00:00 20,8 13,5 11 6 NW 1021,5 10
14.06.2018 13:00:00 18,0 13,0 11 6 WNW - 10
14.06.2018 12:00:00 18,0 13,0 8 4 - - 10
14.06.2018 11:00:00 18,6 13,7 11 6 NW 1021,0 10
14.06.2018 10:00:00 18,0 13,0 11 6 W - 10
14.06.2018 09:00:00 17,0 14,0 5 3 SW - 10
14.06.2018 08:00:00 15,0 13,9 5 3 WSW 1020,7 10
14.06.2018 07:00:00 14,0 13,0 5 3 SSW - 10
14.06.2018 06:00:00 14,0 13,0 8 4 S - 10
14.06.2018 05:00:00 15,0 13,0 4 2 - - 10
14.06.2018 04:00:00 15,0 13,0 5 3 WSW - 10
14.06.2018 03:00:00 16,0 13,0 5 3 W - 10
14.06.2018 02:00:00 16,0 14,0 5 3 W - 10
14.06.2018 01:00:00 16,0 14,0 8 4 W - 10
14.06.2018 00:00:00 17,0 14,0 8 4 WNW - 10
13.06.2018 23:00:00 17,0 15,0 8 4 W - 10
13.06.2018 22:00:00 17,0 14,0 11 6 W - 10
13.06.2018 21:00:00 17,0 14,0 9 5 W - 10
13.06.2018 20:00:00 17,2 13,9 11 6 WNW 1021,8 10

tt = Température de l'air
td = dewpoint
ff = Vitesse du vent
dd = Direction du vent
ppp = reduced air pressure
vv = visibility

stations d'obs. à proximité